Location: Newark
(7.0858°N, 171.3717°E)
Time: 06:43:18
(UTC+00:00)

Courier 1B - Pass Details

Date: 28 November 2020
Orbit: 962 x 1209 km, 28.3° (Epoch: 19 January)

Event Time Altitude Azimuth Distance (km) Brightness Sun altitude
Rises 05:06:33 0° 206° (SSW) 3,664 11.4 14.8°
Reaches altitude 10° 05:10:42 10° 182° (S) 2,693 10.2 13.9°
Maximum altitude 05:13:55 14° 151° (SSE) 2,397 9.6 13.2°
Drops below altitude 10° 05:17:09 10° 121° (ESE) 2,685 9.5 12.4°
Sets 05:21:14 0° 97° (E) 3,645 10.0 11.5°
